This is the latest recevied weather packets stored in our database for station/object G1OCN-WX. If no packets are shown the sender has not sent any weather packets the latest 1 day(s).
| Time | Temp. | Humidity | Pressure | Rain* | Wind** | Luminosity | Snow |
|---|---|---|---|---|---|---|---|
| 1778051632 | 8.33° C | 86% | 1013.3 hPa | 0 mm | 5.36 m/s, 64° | - | - |
| 1778051571 | 8.33° C | 86% | 1013.3 hPa | 0 mm | 6.26 m/s, 68° | - | - |
| 1778051511 | 8.33° C | 86% | 1013.3 hPa | 0 mm | 5.81 m/s, 71° | - | - |
| 1778051451 | 8.33° C | 86% | 1013.3 hPa | 0 mm | 5.36 m/s, 66° | - | - |
| 1778051391 | 8.33° C | 86% | 1013.3 hPa | 0 mm | 6.26 m/s, 70° | - | - |
| 1778051331 | 8.33° C | 86% | 1013.3 hPa | 0 mm | 5.81 m/s, 67° | - | - |
| 1778051271 | 8.33° C | 86% | 1013.3 hPa | 0 mm | 6.71 m/s, 67° | - | - |
| 1778051211 | 8.33° C | 86% | 1013.3 hPa | 0 mm | 6.71 m/s, 67° | - | - |
| 1778051151 | 8.33° C | 86% | 1013.3 hPa | 0 mm | 5.36 m/s, 65° | - | - |
| 1778051091 | 8.33° C | 86% | 1013.3 hPa | 0 mm | 5.36 m/s, 65° | - | - |
| 1778051001 | 8.33° C | 86% | 1013.2 hPa | 0 mm | 6.26 m/s, 68° | - | - |
| 1778050941 | 8.33° C | 86% | 1013.2 hPa | 0 mm | 7.15 m/s, 70° | - | - |
| 1778050881 | 8.33° C | 86% | 1013.3 hPa | 0 mm | 6.26 m/s, 67° | - | - |
| 1778050821 | 8.33° C | 86% | 1013.3 hPa | 0 mm | 5.81 m/s, 70° | - | - |
| 1778050761 | 8.33° C | 86% | 1013.2 hPa | 0 mm | 5.81 m/s, 65° | - | - |
| 1778050701 | 8.33° C | 86% | 1013.2 hPa | 0 mm | 5.81 m/s, 65° | - | - |
| 1778050641 | 8.33° C | 86% | 1013.2 hPa | 0 mm | 6.26 m/s, 64° | - | - |
| 1778050580 | 8.33° C | 86% | 1013.2 hPa | 0 mm | 6.26 m/s, 69° | - | - |
| 1778050520 | 8.33° C | 86% | 1013.2 hPa | 0 mm | 5.81 m/s, 64° | - | - |
| 1778050460 | 8.33° C | 85% | 1013.2 hPa | 0 mm | 6.26 m/s, 63° | - | - |
| 1778050400 | 8.33° C | 85% | 1013.2 hPa | 0 mm | 6.26 m/s, 62° | - | - |
| 1778050340 | 8.33° C | 85% | 1013.2 hPa | 0 mm | 5.81 m/s, 62° | - | - |
| 1778050280 | 8.33° C | 85% | 1013.2 hPa | 0 mm | 5.36 m/s, 64° | - | - |
| 1778050220 | 8.33° C | 85% | 1013.2 hPa | 0 mm | 5.36 m/s, 63° | - | - |
| 1778050160 | 8.33° C | 85% | 1013.2 hPa | 0 mm | 4.02 m/s, 64° | - | - |
* Rain latest hour (hover to see other rain measurements)
** Current wind speed in m/s (hover to see current wind gust speed)